This is the latest recevied weather packets stored in our database for station/object KF5JED-13. If no packets are shown the sender has not sent any weather packets the latest 10 day(s).
| Time | Temp. | Humidity | Pressure | Rain* | Wind** | Luminosity | Snow |
|---|---|---|---|---|---|---|---|
| 1778272620 | 28.33° C | 21% | 1011 hPa | 0 mm | - | 791 W/m² | - |
| 1778272316 | 28.89° C | 22% | 1011.2 hPa | 0 mm | - | 797 W/m² | - |
| 1778272012 | 28.33° C | 21% | 1011.1 hPa | 0 mm | - | 805 W/m² | - |
| 1778271710 | 27.78° C | 23% | 1011 hPa | 0 mm | - | 813 W/m² | - |
| 1778271406 | 27.78° C | 21% | 1011 hPa | 0 mm | - | 820 W/m² | - |
| 1778271103 | 28.33° C | 22% | 1011.1 hPa | 0 mm | - | 830 W/m² | - |
| 1778270800 | 27.78° C | 22% | 1011.1 hPa | 0 mm | - | 830 W/m² | - |
| 1778270496 | 28.33° C | 23% | 1011.1 hPa | 0 mm | - | 834 W/m² | - |
| 1778270193 | 28.33° C | 24% | 1011 hPa | 0 mm | - | 843 W/m² | - |
| 1778269889 | 28.33° C | 25% | 1011 hPa | 0 mm | - | 846 W/m² | - |
| 1778269586 | 27.78° C | 26% | 1011.3 hPa | 0 mm | - | 851 W/m² | - |
| 1778269283 | 27.78° C | 24% | 1011.2 hPa | 0 mm | - | 858 W/m² | - |
| 1778268980 | 28.33° C | 25% | 1011.1 hPa | 0 mm | - | 865 W/m² | - |
| 1778268676 | 27.22° C | 26% | 1011.3 hPa | 0 mm | - | 870 W/m² | - |
| 1778268373 | 27.22° C | 25% | 1011.3 hPa | 0 mm | - | 873 W/m² | - |
| 1778268070 | 27.78° C | 24% | 1011.3 hPa | 0 mm | - | 873 W/m² | - |
| 1778267767 | 28.33° C | 25% | 1011.1 hPa | 0 mm | - | 876 W/m² | - |
| 1778267464 | 27.22° C | 24% | 1011.2 hPa | 0 mm | - | 880 W/m² | - |
| 1778267161 | 27.22° C | 25% | 1011.2 hPa | 0 mm | - | 882 W/m² | - |
| 1778266857 | 27.22° C | 25% | 1011.5 hPa | 0 mm | - | 886 W/m² | - |
| 1778266555 | 27.22° C | 25% | 1011.2 hPa | 0 mm | - | 887 W/m² | - |
| 1778266252 | 27.22° C | 25% | 1011.3 hPa | 0 mm | - | 892 W/m² | - |
| 1778265949 | 27.22° C | 25% | 1011.1 hPa | 0 mm | - | 892 W/m² | - |
| 1778265646 | 27.78° C | 24% | 1011.2 hPa | 0 mm | - | 891 W/m² | - |
| 1778265343 | 27.22° C | 24% | 1011.3 hPa | 0 mm | - | 888 W/m² | - |
* Rain latest hour (hover to see other rain measurements)
** Current wind speed in m/s (hover to see current wind gust speed)